Wind_Speed
10 9 8 9 9 7 5 4 5 6 5 4 3 3 4 4 4 4 4 4 4 4 4 3 3 3 2 2 2 2 3 4 4 4 3 3 3 3 2 1 2 2 1 1
12 11 11 12 11 9 7 6 6 7 6 5 5 4 4 4 5 4 5 5 4 4 5 4 4 3 3 3 3 2 3 3 4 4 3 3 3 3 2 1 1 2 2 2
13 13 14 13 12 11 9 8 8 8 8 8 7 6 6 6 5 5 5 6 6 5 6 6 5 5 4 4 4 4 3 4 4 4 4 3 3 3 2 2 2 2 3 3
16 15 15 14 13 12 10 10 10 9 8 8 8 7 7 7 6 6 6 7 7 7 7 6 6 6 5 5 4 4 4 4 4 4 4 4 4 4 3 3 4 4 4 5
18 17 16 15 14 13 12 12 10 9 9 8 8 7 7 8 7 7 7 7 7 7 7 7 7 7 6 6 5 5 5 5 5 5 5 5 5 5 4 4 5 5 5 5
20 19 18 17 16 15 14 12 11 10 9 9 9 7 7 9 9 8 8 7 7 7 7 7 7 7 7 7 6 6 6 6 7 7 6 6 5 5 5 5 5 6 6 6
21 21 20 19 18 17 15 13 11 11 10 10 11 9 9 9 9 9 8 8 8 8 8 8 8 8 7 7 7 7 7 7 8 8 8 7 7 7 7 7 7 8 8 8
21 21 21 20 20 18 16 15 13 12 11 11 12 10 9 10 10 10 9 9 9 9 9 8 8 9 8 8 9 9 9 9 9 9 9 9 8 8 8 8 9 9 9 9
22 22 22 21 20 19 18 17 15 14 13 12 12 11 10 11 11 10 10 10 10 10 9 9 9 9 10 10 10 10 10 10 10 10 10 10 10 10 10 10 10 11 10 10
23 23 23 22 21 21 20 18 17 15 13 13 13 11 10 11 11 11 11 11 11 10 10 10 10 10 11 11 12 12 12 12 12 12 12 12 12 12 12 11 11 12 12 12
24 24 23 23 22 21 20 20 18 16 16 13 13 12 12 13 12 12 12 12 12 12 12 11 11 12 13 13 13 13 14 14 14 14 14 14 14 14 14 13 13 13 13 13
24 24 24 24 23 23 22 21 20 18 18 16 14 14 15 14 13 14 14 14 14 14 14 13 13 13 14 14 15 15 15 16 16 16 16 16 15 15 16 15 14 13 13 14
25 25 24 24 24 24 24 23 21 20 19 18 16 15 16 16 14 14 15 15 15 15 15 15 15 15 15 16 16 17 17 17 17 18 18 18 17 17 17 16 16 15 15 15
26 26 25 24 23 24 25 25 24 22 21 20 18 17 18 17 16 16 16 16 16 16 17 16 17 17 17 18 18 18 18 18 18 19 19 19 18 18 18 18 18 18 17 18
27 27 27 27 27 27 27 26 25 25 23 22 20 20 19 19 17 17 17 17 17 17 17 17 18 18 18 18 19 19 19 19 20 19 19 19 20 19 19 20 19 20 19 19
29 29 29 29 29 28 28 27 26 26 25 24 23 22 21 20 19 19 18 18 18 18 18 18 18 18 19 19 18 18 18 19 20 20 19 19 20 20 21 21 21 21 21 21
30 29 29 28 29 29 29 27 27 27 26 25 24 23 22 21 21 20 20 20 19 19 18 19 19 19 19 19 19 19 19 18 19 19 19 19 19 20 21 22 23 23 23 24
30 29 29 28 29 30 28 27 27 27 27 27 26 25 24 23 22 21 21 21 21 21 20 20 21 20 20 20 20 20 20 19 18 19 20 20 20 21 23 23 24 24 24 24
31 30 29 29 28 29 29 29 27 27 27 27 27 27 26 24 23 23 22 22 23 22 22 21 21 22 21 21 21 21 21 20 20 21 21 21 21 22 22 23 23 23 24 24
32 32 31 30 29 28 29 29 28 28 28 28 28 28 27 25 24 23 23 23 22 22 22 22 22 22 22 23 22 22 22 22 22 23 23 23 23 23 23 23 23 24 25 25
32 32 31 30 29 28 30 30 28 28 29 28 28 28 27 26 25 24 23 23 23 23 24 24 23 23 23 23 24 24 24 24 24 25 25 25 25 24 24 24 24 24 25 25
31 31 32 31 30 30 30 29 29 29 28 28 27 27 27 26 25 25 24 24 24 24 25 25 25 25 24 24 25 25 26 26 26 26 26 26 26 26 25 24 25 24 24 24
33 31 31 32 32 31 30 29 29 29 29 28 28 27 27 27 27 27 26 26 25 25 26 26 26 25 25 25 26 26 26 27 27 27 27 27 27 27 26 25 25 25 25 25
33 33 32 32 32 32 31 30 29 29 29 29 28 28 28 28 28 28 28 27 27 27 27 27 27 27 26 27 27 26 26 26 26 27 27 28 28 28 28 27 27 27 27 27
33 33 33 32 32 33 32 31 30 29 28 28 28 28 28 28 28 28 28 28 28 28 28 28 28 27 27 27 27 27 26 27 27 27 28 28 28 28 29 29 29 28 28 29
32 32 32 33 32 32 32 31 30 30 29 29 28 28 28 28 28 28 29 29 29 29 30 30 30 29 28 28 29 28 28 28 28 28 29 29 28 28 29 29 29 30 29 30
Wind_Direction
221 222 221 226 227 232 239 252 259 268 290 312 326 335 341 349 352 346 343 339 343 346 351 355 358 0 350 356 17 26 21 18 21 25 28 30 38 50 59 51 44 45 44 17
225 228 229 232 236 240 242 247 259 271 285 301 312 319 320 323 326 323 323 322 318 324 329 327 329 327 328 321 334 344 339 351 360 3 6 9 18 18 15 0 355 2 355 335
229 230 234 237 241 245 247 247 252 263 279 293 304 313 312 318 319 314 310 310 307 310 315 318 320 318 314 311 314 320 322 325 335 343 350 349 350 350 344 330 314 308 311 309
230 233 235 238 242 246 249 249 252 264 279 289 296 299 305 309 310 314 310 305 305 304 302 305 306 308 306 304 305 308 315 312 313 323 331 328 328 328 325 315 306 301 305 302
234 235 237 239 242 246 248 252 257 265 275 281 289 291 294 301 307 308 307 303 305 304 299 295 296 298 298 297 301 301 300 300 297 304 316 320 323 317 309 304 302 300 304 306
236 238 239 240 243 246 250 255 262 267 271 275 277 280 283 289 295 298 302 304 302 306 302 293 291 293 294 294 295 296 293 294 293 290 294 303 311 311 308 302 301 300 299 299
238 239 239 239 242 243 248 253 261 267 271 275 276 274 271 277 285 291 293 296 299 301 301 294 288 293 293 291 290 290 288 289 291 286 284 289 294 299 303 300 300 300 299 294
240 240 239 238 239 241 245 245 245 252 263 272 278 275 274 276 281 289 291 292 295 299 297 292 287 290 289 288 286 283 284 286 292 287 279 281 286 289 293 296 297 296 295 294
237 239 239 238 239 240 241 243 245 250 257 260 266 271 272 277 281 285 287 288 290 293 292 290 288 285 287 286 283 281 279 282 287 286 279 276 278 283 287 291 292 293 292 291
234 236 237 238 238 238 241 242 243 245 250 259 267 273 274 275 278 279 281 284 288 289 287 288 287 281 280 279 280 279 277 279 279 281 278 275 274 277 282 288 292 291 290 288
234 235 236 238 238 239 240 241 241 244 246 253 262 268 267 270 270 273 277 280 284 287 288 288 289 281 277 277 278 278 276 278 278 278 277 273 270 273 279 282 286 286 286 285
234 234 235 239 241 239 239 240 241 244 249 249 252 262 266 269 269 269 271 275 279 282 285 285 286 283 281 280 280 281 278 277 277 277 275 273 270 270 272 276 281 283 283 284
234 234 236 240 243 242 241 241 243 244 249 251 253 259 265 267 269 269 270 272 274 275 279 281 282 282 282 283 282 281 282 281 280 278 275 272 269 269 271 272 275 280 282 284
236 236 234 236 240 241 242 243 243 243 246 249 251 253 259 264 267 268 269 268 269 273 276 275 277 278 281 282 282 280 281 280 280 280 277 273 272 270 267 269 273 278 280 281
238 239 238 237 239 243 244 243 243 242 243 246 249 255 258 263 266 266 266 267 268 270 272 274 276 277 281 283 282 280 277 278 279 281 280 276 274 272 270 269 271 275 279 278
240 242 242 241 241 243 244 243 243 243 244 246 250 255 257 260 263 265 265 267 267 268 270 274 277 279 282 282 282 281 277 277 279 280 282 278 275 273 273 271 270 272 276 277
240 243 243 244 244 245 244 243 243 243 244 246 250 252 254 258 261 263 265 267 266 267 269 273 274 277 280 279 278 279 276 278 279 279 281 282 280 280 279 277 276 276 275 275
239 241 242 243 244 243 244 245 244 245 246 246 248 249 254 258 260 259 261 265 267 266 266 267 272 276 278 278 277 278 279 279 279 281 283 285 285 284 282 281 280 279 277 276
238 239 241 242 244 246 246 246 246 247 247 247 248 250 255 258 260 259 261 263 266 265 266 268 271 272 274 278 279 278 278 279 281 282 283 284 284 284 285 284 280 279 279 279
237 238 240 242 243 245 246 248 247 248 249 247 249 251 254 256 257 259 261 264 266 267 270 271 271 273 273 275 277 277 278 280 282 282 282 283 284 283 283 285 283 280 278 278
237 238 239 241 243 245 246 248 247 245 247 248 249 250 252 254 256 258 260 263 265 267 269 271 273 273 275 275 276 277 278 280 281 283 283 282 283 284 282 281 286 285 282 279
235 236 238 239 241 243 247 248 245 245 248 249 250 251 252 254 257 258 260 262 264 266 268 270 272 272 272 275 277 278 279 280 280 281 282 282 282 282 281 281 284 285 283 283
235 235 237 238 241 244 247 248 247 246 248 249 249 252 254 255 257 258 260 262 263 265 269 272 275 273 272 276 278 280 281 282 282 282 282 282 281 280 278 279 282 283 283 284
237 236 238 238 240 242 245 247 248 247 247 249 250 251 253 255 257 259 260 262 263 265 268 272 274 275 276 276 277 278 280 282 283 283 283 282 281 279 279 279 280 282 282 284
238 238 239 240 241 243 244 246 247 246 247 250 252 252 254 255 257 259 260 262 264 265 268 270 273 275 275 276 277 277 277 279 281 283 283 281 280 279 278 279 279 279 281 284
239 240 242 243 243 245 245 245 245 246 248 249 251 252 253 254 255 258 260 262 263 265 268 271 273 274 275 275 276 276 276 278 280 280 280 279 279 278 279 280 281 280 281 282
Height
5920 5923 5924 5925 5925 5926 5926 5927 5926 5926 5925 5924 5924 5923 5922 5921 5919 5918 5917 5916 5915 5914 5913 5913 5911 5910 5909 5909 5908 5907 5906 5905 5904 5903 5902 5901 5900 5899 5898 5898 5897 5897 5896 5896
5919 5920 5921 5922 5923 5924 5925 5925 5925 5925 5924 5924 5923 5923 5922 5920 5919 5918 5917 5916 5915 5914 5913 5912 5911 5910 5910 5909 5908 5907 5906 5905 5904 5903 5902 5901 5900 5899 5898 5898 5897 5897 5896 5895
5916 5918 5918 5919 5921 5922 5923 5924 5923 5923 5923 5922 5923 5923 5921 5920 5919 5918 5916 5915 5914 5914 5913 5912 5911 5910 5909 5909 5908 5907 5906 5905 5904 5903 5902 5901 5900 5899 5899 5898 5897 5897 5896 5895
5913 5914 5916 5917 5918 5919 5921 5921 5921 5921 5921 5922 5922 5923 5921 5919 5918 5917 5916 5914 5913 5913 5912 5911 5910 5909 5909 5908 5907 5907 5906 5905 5904 5904 5903 5901 5900 5899 5898 5897 5897 5896 5895 5894
5910 5911 5912 5914 5916 5916 5917 5918 5919 5919 5919 5920 5920 5921 5921 5918 5917 5916 5914 5913 5912 5912 5911 5910 5909 5908 5907 5907 5906 5906 5905 5905 5904 5903 5902 5901 5900 5899 5898 5897 5896 5895 5894 5893
5906 5907 5909 5911 5912 5913 5914 5915 5916 5917 5918 5919 5918 5919 5919 5917 5915 5914 5913 5912 5911 5910 5909 5908 5908 5907 5906 5906 5905 5905 5904 5904 5903 5902 5901 5900 5899 5898 5897 5896 5895 5894 5893 5892
5901 5903 5905 5907 5908 5910 5911 5914 5916 5916 5917 5917 5916 5915 5916 5914 5913 5912 5911 5910 5909 5908 5907 5907 5906 5905 5905 5904 5904 5903 5903 5902 5902 5901 5900 5899 5898 5897 5896 5895 5894 5893 5892 5891
5897 5899 5900 5902 5904 5906 5908 5910 5913 5915 5916 5916 5913 5912 5913 5911 5910 5909 5909 5908 5907 5907 5906 5905 5904 5904 5903 5902 5902 5901 5901 5900 5900 5899 5898 5897 5896 5896 5895 5894 5892 5891 5890 5889
5893 5895 5896 5898 5900 5902 5904 5905 5908 5910 5911 5911 5912 5910 5909 5908 5907 5907 5906 5906 5905 5904 5904 5903 5902 5901 5901 5900 5899 5899 5898 5898 5897 5897 5896 5895 5894 5893 5893 5892 5890 5889 5888 5887
5887 5889 5891 5893 5895 5897 5900 5902 5903 5905 5906 5908 5909 5908 5908 5905 5904 5904 5904 5903 5902 5902 5901 5900 5900 5899 5898 5897 5897 5896 5895 5895 5894 5894 5893 5892 5892 5891 5890 5889 5888 5887 5886 5884
5881 5885 5887 5888 5890 5893 5895 5897 5898 5901 5902 5904 5906 5907 5903 5902 5901 5901 5901 5900 5899 5899 5898 5897 5897 5896 5895 5894 5893 5893 5892 5892 5891 5890 5889 5889 5888 5888 5887 5886 5885 5884 5882 5881
5876 5879 5882 5884 5886 5887 5889 5891 5894 5896 5896 5898 5900 5903 5898 5898 5898 5897 5897 5897 5896 5895 5895 5894 5893 5892 5891 5891 5890 5890 5889 5888 5887 5886 5886 5885 5884 5884 5884 5883 5882 5881 5880 5878
5870 5873 5876 5879 5881 5882 5883 5885 5887 5890 5892 5893 5895 5898 5893 5893 5893 5893 5893 5893 5892 5892 5891 5890 5890 5889 5888 5887 5886 5886 5885 5884 5883 5882 5881 5881 5880 5880 5879 5879 5878 5877 5876 5874
5863 5866 5871 5875 5876 5876 5877 5879 5881 5884 5886 5888 5889 5891 5889 5889 5889 5889 5889 5889 5888 5888 5887 5886 5886 5885 5884 5883 5882 5881 5881 5880 5879 5878 5877 5876 5876 5875 5875 5874 5873 5873 5872 5870
5856 5859 5862 5865 5867 5869 5871 5873 5875 5877 5879 5882 5883 5884 5884 5884 5884 5884 5884 5884 5884 5883 5883 5882 5881 5880 5879 5878 5877 5876 5875 5875 5874 5873 5872 5871 5871 5870 5870 5869 5868 5868 5867 5865
5849 5852 5854 5857 5859 5861 5863 5865 5868 5870 5872 5875 5876 5877 5877 5878 5879 5879 5879 5879 5879 5878 5878 5877 5876 5876 5874 5873 5872 5871 5870 5870 5869 5868 5867 5866 5865 5865 5864 5863 5862 5862 5861 5860
5841 5844 5847 5850 5852 5853 5855 5859 5861 5863 5865 5868 5869 5871 5871 5872 5873 5874 5874 5874 5873 5873 5873 5872 5871 5870 5869 5868 5867 5866 5865 5864 5864 5863 5862 5861 5861 5860 5859 5858 5857 5856 5855 5854
5833 5836 5839 5842 5844 5846 5851 5852 5853 5856 5858 5860 5861 5863 5864 5866 5867 5867 5867 5868 5868 5867 5867 5867 5866 5865 5864 5863 5862 5861 5860 5859 5859 5858 5857 5856 5855 5854 5853 5852 5850 5849 5848 5847
5825 5828 5831 5834 5836 5839 5842 5843 5846 5848 5850 5852 5854 5856 5858 5859 5860 5861 5861 5861 5861 5861 5861 5860 5860 5860 5859 5858 5857 5856 5855 5854 5853 5852 5852 5850 5849 5848 5847 5845 5844 5842 5841 5841
5817 5820 5824 5826 5829 5832 5835 5836 5839 5842 5843 5845 5847 5849 5851 5852 5854 5855 5855 5855 5855 5855 5854 5854 5854 5853 5853 5852 5851 5851 5850 5849 5848 5847 5845 5844 5843 5842 5841 5839 5837 5836 5835 5834
5809 5812 5815 5818 5821 5824 5826 5828 5832 5835 5836 5838 5840 5841 5843 5845 5846 5848 5848 5848 5848 5849 5848 5848 5847 5847 5847 5846 5845 5844 5843 5842 5841 5840 5839 5837 5836 5835 5834 5833 5831 5830 5828 5827
5801 5805 5807 5811 5814 5818 5817 5820 5824 5826 5828 5830 5832 5834 5836 5837 5839 5840 5841 5841 5842 5842 5842 5841 5841 5840 5840 5839 5839 5838 5836 5835 5834 5833 5831 5830 5829 5827 5827 5826 5824 5823 5821 5820
5793 5797 5799 5803 5807 5808 5810 5812 5815 5818 5820 5822 5824 5826 5828 5830 5831 5832 5833 5834 5834 5834 5834 5834 5834 5833 5833 5832 5831 5830 5829 5828 5826 5825 5824 5822 5821 5820 5819 5818 5817 5816 5815 5813
5784 5788 5791 5794 5796 5799 5802 5804 5807 5809 5812 5814 5817 5819 5820 5822 5823 5824 5825 5826 5826 5827 5827 5827 5826 5826 5825 5824 5823 5823 5821 5820 5819 5817 5816 5815 5813 5812 5811 5810 5810 5808 5807 5806
5776 5779 5782 5785 5788 5791 5793 5796 5799 5801 5804 5806 5808 5810 5812 5814 5815 5816 5817 5818 5818 5819 5819 5819 5818 5818 5817 5817 5816 5815 5814 5812 5811 5809 5808 5807 5806 5805 5804 5803 5802 5801 5800 5799
5768 5771 5774 5777 5780 5783 5786 5788 5791 5793 5796 5798 5800 5802 5804 5805 5807 5808 5809 5809 5810 5810 5810 5810 5810 5810 5809 5808 5807 5806 5805 5804 5803 5801 5800 5798 5797 5797 5796 5794 5794 5792 5792 5790